Flag for U.S.A. Weather past 2 weeks in Pasadena, California, U.S.A.

Now
70 °F

Sunny.


Feels Like: 74 °F
Forecast: 51 / 80 °F
Wind: No wind

Location: Burbank-Glendale-Pasadena Airport

Current Time: Mar 6, 2015 at 10:38:18 AM

Latest Report: Mar 6, 2015 at 9:53 AM


Visibility: 10 mi

Pressure: 30.12 "Hg

Humidity: 18%

Dew point: 25 °F

Location of PasadenaLocation

Historic Weather in Pasadena — Graph

°F

Pasadena temperature yesterday

Maximum temperature yesterday: 74 °F (at 1:53 PM)
Minimum temperature yesterday: 44 °F (at 5:53 AM)
Average temperature yesterday: 59 °F

Past Weeks' High & Low Weather Summary

 TemperatureHumidityPressure
High75 °F (Feb 19, 2:53 PM)94% (Feb 22, 6:00 PM)30.25 "Hg (Feb 22, 6:00 PM)
Low43 °F (Feb 24, 3:53 AM)11% (Mar 5, 12:53 PM)29.71 "Hg (Feb 27, 11:53 PM)
Average57 °F62%29.95 "Hg
* Reported Feb 19 8:53 AM — Mar 6 8:53 AM, Pasadena, Weather by CustomWeather, © 2015

Note: Actual official high and low records may vary slightly from our data, if they occured in-between our weather recording intervals... More about our weather records

Advertising

Pasadena weather history for previous 24 hours

 ConditionsComfort  
Time TempWeatherWind HumidityBarometerVisibility
8:53 AM
Fri, Mar 6
64 °FSunny.3 mph22%30.13 "Hg10 mi
7:53 AM59 °FSunny.3 mph28%30.13 "Hg10 mi
6:53 AM48 °FSunny.No wind41%30.12 "Hg10 mi
5:53 AM45 °FClear.No wind44%30.12 "Hg10 mi
4:53 AM44 °FClear.5 mph43%30.11 "Hg10 mi
3:53 AM47 °FClear.3 mph37%30.10 "Hg10 mi
2:53 AM48 °FClear.No wind36%30.11 "Hg10 mi
1:53 AM49 °FClear.No wind36%30.12 "Hg10 mi
12:53 AM53 °FClear.5 mph31%30.12 "Hg10 mi
11:53 PM
Thu, Mar 5
55 °FClear.No wind28%30.13 "Hg10 mi
10:53 PM53 °FClear.No wind34%30.14 "Hg10 mi
9:53 PM55 °FClear.No wind33%30.15 "Hg10 mi
8:53 PM57 °FClear.No wind36%30.15 "Hg10 mi
7:53 PM60 °FClear.No wind32%30.15 "Hg10 mi
6:53 PM64 °FClear.No wind21%30.15 "Hg10 mi
5:53 PM67 °FClear.3 mph16%30.15 "Hg10 mi
4:53 PM70 °FSunny.8 mph14%30.14 "Hg10 mi
3:53 PM72 °FSunny.10 mph14%30.14 "Hg10 mi
2:53 PM74 °FSunny.13 mph14%30.14 "Hg10 mi
1:53 PM74 °FSunny.No wind14%30.15 "Hg10 mi
12:53 PM73 °FSunny.3 mph11%30.18 "Hg10 mi
11:53 AM72 °FSunny.7 mph14%30.21 "Hg10 mi
10:53 AM69 °FSunny.7 mph16%30.23 "Hg10 mi
Weather by CustomWeather, © 2015

See weather overviewHow to use our weather pages